This is the latest recevied weather packets stored in our database for station/object OK1VOF-13. If no packets are shown the sender has not sent any weather packets the latest 10 day(s).
| Time | Temp. | Humidity | Pressure | Rain* | Wind** | Luminosity | Snow |
|---|---|---|---|---|---|---|---|
| 1777660191 | 18.89° C | 31% | 1026.5 hPa | 0 mm | - | - | - |
| 1777659890 | 19.44° C | 31% | 1026.4 hPa | 0 mm | - | - | - |
| 1777659590 | 20° C | 30% | 1026.4 hPa | 0 mm | - | - | - |
| 1777659295 | 20.56° C | 29% | 1026.4 hPa | 0 mm | - | - | - |
| 1777659290 | 20.56° C | 29% | 1026.4 hPa | 0 mm | - | - | - |
| 1777658990 | 21.11° C | 27% | 1026.3 hPa | 0 mm | - | - | - |
| 1777658689 | 22.22° C | 25% | 1026.2 hPa | 0 mm | - | - | - |
| 1777658390 | 22.78° C | 24% | 1026.2 hPa | 0 mm | - | - | - |
| 1777658094 | 23.89° C | 23% | 1026.1 hPa | 0 mm | - | - | - |
| 1777658089 | 23.89° C | 23% | 1026.1 hPa | 0 mm | - | - | - |
| 1777657800 | 25.56° C | 21% | - | - | - | - | - |
| 1777657788 | 25.56° C | 21% | 1026.1 hPa | 0 mm | - | - | - |
| 1777657488 | 27.22° C | 19% | 1026.1 hPa | 0 mm | - | - | - |
| 1777657193 | 28.33° C | 18% | - | - | - | - | - |
| 1777657188 | 28.33° C | 18% | 1026.2 hPa | 0 mm | - | - | - |
| 1777656592 | 29.44° C | 17% | 1026.5 hPa | - | - | - | - |
| 1777656587 | 29.44° C | 17% | 1026 hPa | 0 mm | - | - | - |
| 1777656292 | 30.56° C | 16% | 1026 hPa | 0 mm | - | - | - |
| 1777656287 | 30.56° C | 16% | 1026 hPa | 0 mm | - | - | - |
| 1777655986 | 30.56° C | 16% | 1026 hPa | 0 mm | - | - | - |
| 1777655686 | 31.11° C | 16% | 1025.9 hPa | 0 mm | - | - | - |
| 1777655386 | 31.11° C | 16% | 1026 hPa | 0 mm | - | - | - |
| 1777655085 | 30.56° C | 15% | 1026 hPa | 0 mm | - | - | - |
| 1777654785 | 32.78° C | 14% | 1026 hPa | 0 mm | - | - | - |
| 1777654485 | 32.78° C | 14% | 1026.1 hPa | 0 mm | - | - | - |
* Rain latest hour (hover to see other rain measurements)
** Current wind speed in m/s (hover to see current wind gust speed)